Weather Roundup
Issued by NWS

Home | Current Version | Previous Version | Text Only | Print | Product List | Glossary On
Versions: 1 2 3 4 5 6 7 8 9 10 11 12 13 14 15 16 17 18 19 20 21 22 23 24 25 26 27 28 29 30 31 32 33 34 35 36 37 38 39 40 41 42 43 44 45 46 47 48 49 50
982
NZUS93 KARX 260210
HRRWXR

CURRENT HOURLY OBSERVATIONS ACROSS
MUCH OF THE UPPER MISSISSIPPI VALLEY
NATIONAL WEATHER SERVICE LA CROSSE WI
900 PM CDT SUN SEP 25 2016


...SOUTHEAST MINNESOTA...


CITY           SKY/WX    TMP DP  RH WIND       PRES   REMARKS
ROCHESTER      CLOUDY    57  52  83 W9        30.02R
ROCHESTER/MAYO CLOUDY    58  50  73 W12G21    30.01R
WINONA         CLOUDY    61  50  67 W13G20    29.98R
AUSTIN         PTCLDY    55  50  82 W6        30.04R
ALBERT LEA     CLEAR     55  50  82 W3        30.05R
DODGE CENTER   PTCLDY    55  50  82 W8        30.02R
PRESTON        CLOUDY    57  49  77 W14       30.02R
OWATONNA       CLEAR     55  48  76 W6        30.03R
FARIBAULT      PTCLDY    57  48  72 W8        30.02R
$$

...ELSEWHERE IN MINNESOTA...


CITY           SKY/WX    TMP DP  RH WIND       PRES   REMARKS
MINNEAPOLIS    PTCLDY    58  46  64 W12       29.98R
INTNL FALLS    CLOUDY    53  51  93 W13G22    29.69F FOG
DULUTH         CLOUDY    54  51  90 W15G25    29.80R
RED WING       CLOUDY    61  50  67 W10       29.97R
REDWOOD FALLS  CLEAR     56  40  55 W10       30.05R
MANKATO        CLEAR     55  48  77 W9        30.04R
WORTHINGTON    CLEAR     55  41  59 W12       30.13R
FAIRMONT       CLEAR     57  44  62 NW13      30.08R
$$

...SOUTHWEST WISCONSIN...


CITY           SKY/WX    TMP DP  RH WIND       PRES   REMARKS
LA CROSSE      CLOUDY    63  53  70 W16       29.97R
PRAIRIE DU CHI CLOUDY    62  51  65 W14G20    30.01R
BOSCOBEL       CLOUDY    65  52  62 W9        29.99R
LONE ROCK      CLOUDY    64  53  67 W12       29.98R
PLATTEVILLE    CLOUDY    63  53  71 W14G21    30.01R
FORT MC COY    CLOUDY    58  55  88 W10       29.97R
CAMP DOUGLAS   CLOUDY    62  54  73 W13G22    29.94R
MAUSTON-NEW LI CLOUDY    64  55  72 W8G17     29.94R
VIROQUA        CLOUDY    59  53  78 W12G18    29.99R
WIS DELLS      CLOUDY    63  51  66 W9        29.95R
$$

...ELSEWHERE IN WISCONSIN...


CITY           SKY/WX    TMP DP  RH WIND       PRES   REMARKS
MILWAUKEE      LGT RAIN  73  70  90 W7        29.88S FOG
MADISON        CLOUDY    65  53  65 VRB5      29.96R
GREEN BAY      LGT RAIN  66  65  96 W12       29.87R
EAU CLAIRE     CLOUDY    59  52  77 W12       29.93R
BLACK RVR FLS  CLOUDY    60  54  79 W8G16     29.94S
MEDFORD        LGT RAIN  57  57 100 W13G22    29.90R
WAUSAU         MOCLDY    60  51  72 W9        29.88R
WIS RAPIDS     CLOUDY    62  55  77 W8        29.93R
MARSHFIELD     LGT RAIN  58  53  84 W16G31    29.92R
RICE LAKE      CLOUDY    56  52  86 W12G17    29.93R
$$

...NORTHEAST IOWA...


CITY           SKY/WX    TMP DP  RH WIND       PRES   REMARKS
WATERLOO       CLOUDY    60  50  69 W8        30.06R
DUBUQUE        CLOUDY    62  51  67 MISG      30.03R
DECORAH        CLOUDY    59  52  77 VRB7G14   30.02R
MASON CITY     CLEAR     56  50  80 W9        30.08R
CHARLES CITY   PTCLDY    55  54  94 W8        30.06S
OELWEIN        CLOUDY    61  50  67 NW14G21   30.06R
$$

...ELSEWHERE IN IOWA...


CITY           SKY/WX    TMP DP  RH WIND       PRES   REMARKS
DES MOINES     CLEAR     59  50  72 W5        30.12R
IOWA CITY      MOCLDY    64  50  60 W12       30.08R
FORT DODGE     CLEAR     54  45  71 SW3       30.11R
MARSHALLTOWN   PTCLDY    59  51  75 W8        30.09R
CEDAR RAPIDS   CLOUDY    61  52  72 W20       30.06R
$$

...NORTHERN ILLINOIS...


CITY           SKY/WX    TMP DP  RH WIND       PRES   REMARKS
CHICAGO-OHARE  MOCLDY    75  67  76 W14       29.92R
CHICAGO-MIDWAY MOCLDY    80  66  62 W12       29.92R
MOLINE         CLOUDY    67  52  58 W14G22    30.04R
ROCKFORD       CLOUDY    68  52  56 NW20G26   30.01R
PEORIA         CLOUDY    69  56  62 NW7       30.04R
$$

NOTE: "FAIR" INDICATES FEW OR NO CLOUDS BELOW 12,000 FEET WITH NO
SIGNIFICANT WEATHER AND/OR OBSTRUCTIONS TO VISIBILITY. WIND
SPEEDS ARE IN MILES-PER-HOUR.




USA.gov is the U.S. government's official web portal to all federal, state and local government web resources and services.